Location: Misciano
(43.5000°N, 11.9500°E)
Time: 10:12:13
(UTC+00:00)

Cosmos 2360 Rocket - Pass Details

Date: 13 August 2020
Orbit: 833 x 845 km, 71.0° (Epoch: 20 September)

Event Time Altitude Azimuth Distance (km) Brightness Sun altitude
Rises 22:38:32 0° 323° (NW) 3,411 6.2 -31.5°
Reaches altitude 10° 22:41:26 10° 309° (NW) 2,470 5.2 -31.6°
Enters shadow 22:44:45 22° 275° (W) 1,763 3.9 -31.7°
